• în Republica Moldova
  • Lista ţărilor
  • Pe 7 zile
  • Temperatura apei
  • Hartă satelitară
  • Meteo pe hartă
  • Widget-uri
  • user-avatar
    Intrare

    Meteo pe oră la Coasta de Aur

    Astăzi, 27 Aprilie, Joi

    Timp Temperatura Precipitaţii Vânt Presiune Umiditate
    00:00 +15°C° 0 mm 5 m/s 754 mmHg 83%
    01:00 +14°C° 0 mm 6 m/s 755 mmHg 82%
    02:00 +13°C° 0 mm 5 m/s 755 mmHg 82%
    03:00 +12°C° 0 mm 5 m/s 755 mmHg 82%
    04:00 +10°C° 0 mm 5 m/s 755 mmHg 83%
    05:00 +10°C° 0 mm 5 m/s 755 mmHg 82%
    06:00 +10°C° 0 mm 5 m/s 755 mmHg 80%
    07:00 +11°C° 0 mm 4 m/s 756 mmHg 79%
    08:00 +13°C° 0 mm 4 m/s 756 mmHg 70%
    09:00 +15°C° 0 mm 4 m/s 756 mmHg 61%
    10:00 +18°C° 0 mm 4 m/s 756 mmHg 52%
    11:00 +19°C° 0 mm 4 m/s 756 mmHg 50%
    12:00 +20°C° 0 mm 3 m/s 755 mmHg 48%
    13:00 +21°C° 0 mm 3 m/s 755 mmHg 45%
    14:00 +21°C° 0 mm 3 m/s 755 mmHg 49%
    15:00 +20°C° 0 mm 3 m/s 755 mmHg 54%
    16:00 +20°C° 0 mm 3 m/s 755 mmHg 58%
    17:00 +18°C° 0 mm 3 m/s 755 mmHg 66%
    18:00 +16°C° 0 mm 3 m/s 756 mmHg 75%
    19:00 +12°C° 0 mm 3 m/s 756 mmHg 84%
    20:00 +13°C° 0,1 mm 3 m/s 757 mmHg 82%
    21:00 +13°C° 0,1 mm 4 m/s 757 mmHg 79%
    22:00 +13°C° 0,1 mm 4 m/s 757 mmHg 77%
    23:00 +13°C° 0,1 mm 4 m/s 757 mmHg 76%

    Mâine, 28 Aprilie, Vineri

    Timp Temperatura Precipitaţii Vânt Presiune Umiditate
    00:00 +13°C° 0,1 mm 5 m/s 757 mmHg 75%
    01:00 +13°C° 0,1 mm 6 m/s 757 mmHg 73%
    02:00 +11°C° 0 mm 6 m/s 757 mmHg 73%
    03:00 +11°C° 0 mm 6 m/s 757 mmHg 73%
    04:00 +11°C° 0 mm 6 m/s 757 mmHg 73%
    05:00 +11°C° 0 mm 7 m/s 757 mmHg 73%
    06:00 +12°C° 0 mm 7 m/s 757 mmHg 74%
    07:00 +12°C° 0 mm 7 m/s 758 mmHg 74%
    08:00 +15°C° 0 mm 7 m/s 758 mmHg 71%
    09:00 +17°C° 0 mm 8 m/s 758 mmHg 68%
    10:00 +20°C° 0 mm 8 m/s 758 mmHg 65%
    11:00 +21°C° 0 mm 8 m/s 758 mmHg 65%
    12:00 +21°C° 0 mm 9 m/s 758 mmHg 64%
    13:00 +22°C° 0 mm 9 m/s 757 mmHg 64%
    14:00 +22°C° 0,1 mm 9 m/s 757 mmHg 66%
    15:00 +21°C° 0,1 mm 9 m/s 757 mmHg 67%
    16:00 +21°C° 0,1 mm 9 m/s 757 mmHg 69%
    17:00 +19°C° 0,1 mm 9 m/s 758 mmHg 72%
    18:00 +18°C° 0,1 mm 9 m/s 758 mmHg 74%
    19:00 +17°C° 0,1 mm 9 m/s 758 mmHg 77%
    20:00 +17°C° 0,1 mm 9 m/s 759 mmHg 77%
    21:00 +17°C° 0,1 mm 9 m/s 759 mmHg 77%
    22:00 +16°C° 0,1 mm 9 m/s 759 mmHg 78%
    23:00 +16°C° 0,1 mm 9 m/s 759 mmHg 78%

    Poimâine, 29 Aprilie, Sâmbătă

    Timp Temperatura Precipitaţii Vânt Presiune Umiditate
    00:00 +16°C° 0,1 mm 8 m/s 759 mmHg 79%
    01:00 +15°C° 0,1 mm 8 m/s 759 mmHg 80%
    02:00 +15°C° 0 mm 8 m/s 759 mmHg 79%
    03:00 +13°C° 0 mm 8 m/s 759 mmHg 78%
    04:00 +13°C° 0 mm 8 m/s 759 mmHg 77%
    05:00 +12°C° 0 mm 7 m/s 759 mmHg 76%
    06:00 +12°C° 0 mm 7 m/s 759 mmHg 76%
    07:00 +12°C° 0 mm 7 m/s 760 mmHg 75%
    08:00 +16°C° 0 mm 7 m/s 760 mmHg 72%
    09:00 +18°C° 0 mm 7 m/s 760 mmHg 69%
    10:00 +21°C° 0 mm 7 m/s 760 mmHg 66%
    11:00 +22°C° 0 mm 7 m/s 760 mmHg 64%
    12:00 +23°C° 0 mm 6 m/s 759 mmHg 62%
    13:00 +24°C° 0 mm 6 m/s 759 mmHg 60%
    14:00 +23°C° 0,1 mm 6 m/s 759 mmHg 63%
    15:00 +23°C° 0,1 mm 6 m/s 759 mmHg 67%
    16:00 +23°C° 0,1 mm 6 m/s 759 mmHg 70%
    17:00 +21°C° 0 mm 6 m/s 759 mmHg 76%
    18:00 +19°C° 0 mm 5 m/s 759 mmHg 82%
    19:00 +17°C° 0 mm 5 m/s 760 mmHg 89%
    20:00 +16°C° 0 mm 5 m/s 760 mmHg 90%
    21:00 +16°C° 0 mm 5 m/s 760 mmHg 91%
    22:00 +15°C° 0 mm 5 m/s 760 mmHg 92%
    23:00 +15°C° 0 mm 5 m/s 760 mmHg 93%

    30 Aprilie, Duminică

    Timp Temperatura Precipitaţii Vânt Presiune Umiditate
    00:00 +15°C° 0 mm 5 m/s 760 mmHg 93%
    01:00 +15°C° 0 mm 5 m/s 760 mmHg 94%
    02:00 +15°C° 0,1 mm 5 m/s 759 mmHg 94%
    03:00 +14°C° 0,1 mm 5 m/s 759 mmHg 94%
    04:00 +14°C° 0,1 mm 5 m/s 759 mmHg 94%
    05:00 +15°C° 0,1 mm 6 m/s 759 mmHg 94%
    06:00 +15°C° 0,1 mm 6 m/s 760 mmHg 93%
    07:00 +15°C° 0,1 mm 6 m/s 760 mmHg 93%
    08:00 +17°C° 0,1 mm 6 m/s 760 mmHg 85%
    09:00 +20°C° 0,1 mm 6 m/s 760 mmHg 77%
    10:00 +22°C° 0,1 mm 6 m/s 761 mmHg 68%
    11:00 +23°C° 0 mm 6 m/s 760 mmHg 65%
    12:00 +24°C° 0 mm 6 m/s 759 mmHg 61%
    13:00 +24°C° 0 mm 6 m/s 759 mmHg 57%
    14:00 +24°C° 0 mm 6 m/s 759 mmHg 60%
    15:00 +23°C° 0 mm 6 m/s 759 mmHg 64%
    16:00 +23°C° 0 mm 7 m/s 758 mmHg 67%
    17:00 +21°C° 0 mm 6 m/s 759 mmHg 74%
    18:00 +20°C° 0 mm 6 m/s 759 mmHg 82%
    19:00 +17°C° 0 mm 6 m/s 760 mmHg 89%
    20:00 +17°C° 0,1 mm 6 m/s 760 mmHg 89%
    21:00 +17°C° 0,1 mm 6 m/s 760 mmHg 90%
    22:00 +16°C° 0,1 mm 5 m/s 760 mmHg 91%
    23:00 +16°C° 0 mm 5 m/s 760 mmHg 92%

    1 Mai, Luni

    Timp Temperatura Precipitaţii Vânt Presiune Umiditate
    00:00 +16°C° 0 mm 5 m/s 759 mmHg 93%
    01:00 +15°C° 0 mm 5 m/s 759 mmHg 94%
    02:00 +15°C° 0 mm 5 m/s 759 mmHg 94%
    03:00 +15°C° 0 mm 5 m/s 759 mmHg 95%
    04:00 +15°C° 0 mm 5 m/s 759 mmHg 95%
    05:00 +15°C° 0 mm 5 m/s 759 mmHg 94%
    06:00 +15°C° 0 mm 5 m/s 759 mmHg 94%
    07:00 +15°C° 0 mm 4 m/s 760 mmHg 93%
    08:00 +18°C° 0 mm 4 m/s 760 mmHg 87%
    09:00 +20°C° 0 mm 4 m/s 760 mmHg 80%
    10:00 +22°C° 0 mm 4 m/s 760 mmHg 74%
    11:00 +24°C° 0 mm 3 m/s 759 mmHg 70%
    12:00 +24°C° 0 mm 3 m/s 758 mmHg 66%
    13:00 +25°C° 0 mm 3 m/s 758 mmHg 62%
    14:00 +25°C° 0 mm 3 m/s 757 mmHg 66%
    15:00 +24°C° 0 mm 3 m/s 757 mmHg 70%
    16:00 +24°C° 0 mm 3 m/s 757 mmHg 74%
    17:00 +21°C° 0 mm 2 m/s 757 mmHg 80%
    18:00 +19°C° 0 mm 2 m/s 758 mmHg 86%
    19:00 +18°C° 0 mm 2 m/s 758 mmHg 92%
    20:00 +17°C° 0 mm 2 m/s 758 mmHg 92%
    21:00 +17°C° 0 mm 2 m/s 758 mmHg 92%
    22:00 +16°C° 0 mm 2 m/s 758 mmHg 92%
    23:00 +16°C° 0 mm 2 m/s 758 mmHg 93%

    2 Mai, Marţi

    Timp Temperatura Precipitaţii Vânt Presiune Umiditate
    00:00 +16°C° 0 mm 2 m/s 757 mmHg 93%
    01:00 +16°C° 0 mm 2 m/s 757 mmHg 93%
    02:00 +16°C° 0 mm 2 m/s 757 mmHg 94%
    03:00 +16°C° 0 mm 2 m/s 757 mmHg 94%
    04:00 +16°C° 0 mm 2 m/s 756 mmHg 95%
    05:00 +16°C° 0 mm 2 m/s 757 mmHg 94%
    06:00 +17°C° 0 mm 2 m/s 757 mmHg 93%
    07:00 +18°C° 0 mm 3 m/s 757 mmHg 92%
    08:00 +20°C° 0 mm 3 m/s 757 mmHg 84%
    09:00 +21°C° 0 mm 3 m/s 757 mmHg 76%
    10:00 +23°C° 0 mm 4 m/s 757 mmHg 69%
    11:00 +25°C° 0,1 mm 4 m/s 756 mmHg 66%
    12:00 +26°C° 0,1 mm 4 m/s 755 mmHg 63%
    13:00 +27°C° 0,1 mm 5 m/s 755 mmHg 61%
    14:00 +26°C° 0,2 mm 5 m/s 755 mmHg 65%
    15:00 +26°C° 0,2 mm 5 m/s 755 mmHg 69%
    16:00 +25°C° 0,2 mm 5 m/s 754 mmHg 73%
    17:00 +22°C° 0,1 mm 5 m/s 755 mmHg 79%
    18:00 +21°C° 0,1 mm 5 m/s 755 mmHg 85%
    19:00 +20°C° 0,1 mm 5 m/s 756 mmHg 91%
    20:00 +19°C° 0,2 mm 5 m/s 756 mmHg 92%
    21:00 +19°C° 0,2 mm 5 m/s 756 mmHg 93%
    22:00 +19°C° 0,2 mm 6 m/s 756 mmHg 93%
    23:00 +17°C° 0,3 mm 5 m/s 756 mmHg 93%
    Arată mai mult